Klawock, AK

11:21 PM AKDT on March 24, 2017 (GMT -0800)
Klawock

Weather History for PAKW - February, 2014

Change the Weather History Date:

Saturday, February 8, 2014

  Actual Average Record
Temperature  
Mean Temperature 24 °F -  
Max Temperature 33 °F 39 °F 53 °F (2016)
Min Temperature 14 °F 29 °F 12 °F (2017)
Degree Days  
Heating Degree Days 42    
Moisture  
Dew Point 11 °F    
Average Humidity 59    
Maximum Humidity 84    
Minimum Humidity 40    
Precipitation  
Precipitation 0.00 in - - ()
Sea Level Pressure  
Sea Level Pressure 30.09 in    
Wind  
Wind Speed 3 mph (NE)    
Max Wind Speed 8 mph    
Max Gust Speed -    
Visibility 10 miles    
Events      
Averages and records for this station are not official NWS values.
T = Trace of Precipitation, MM = Missing Value Source: NWS Daily Summary

Daily Weather History Graph

Daily Weather History Graph

Search for Another Location

Airport or City:

Trip Planner

Search our weather history database for the weather conditions in past years. The results will help you decide how hot, cold, wet, or windy it might be!

Date:

Astronomy

Feb. 08, 2014 Rise Set
Actual Time 7:31 AM AKST 4:42 PM AKST
Civil Twilight 6:51 AM AKST 5:22 PM AKST
Nautical Twilight 6:08 AM AKST 6:05 PM AKST
Astronomical Twilight 5:25 AM AKST 6:48 PM AKST
Moon 11:24 AM AKST (2/8) 3:06 AM AKST (2/8)
Length of Visible Light 10h 30m
Length of Day
9h 11m
Waxing Gibbous, 70% of the Moon is Illuminated
Feb 8
Waxing Gibbous
Feb 14
Full
Feb 22
Last Quarter
Feb 28
New
Mar 8
First Quarter

Hourly Weather History & Observations

Time (AKST) Temp. Windchill Dew Point Humidity Pressure Visibility Wind Dir Wind Speed Gust Speed Precip Events Conditions
12:53 AM 23.0 °F 18.4 °F 14.0 °F 68% 30.09 in 10.0 mi ESE 3.5 mph - N/A   Clear
2:53 AM 21.9 °F - 12.9 °F 68% 30.09 in 10.0 mi Calm Calm - N/A   Clear
4:53 AM 18.0 °F - 10.0 °F 71% 30.11 in 10.0 mi Calm Calm - N/A   Clear
7:53 AM 14.0 °F - 10.0 °F 84% 30.13 in 10.0 mi Calm Calm - N/A   Clear
8:53 AM 19.0 °F - 10.9 °F 71% 30.14 in 10.0 mi Calm Calm - N/A   Clear
9:53 AM 24.1 °F - 12.9 °F 62% 30.14 in 10.0 mi Calm Calm - N/A   Clear
10:53 AM 28.0 °F 22.8 °F 10.9 °F 49% 30.14 in 10.0 mi ENE 4.6 mph - N/A   Clear
11:53 AM 30.9 °F 26.2 °F 10.9 °F 43% 30.12 in 10.0 mi East 4.6 mph - N/A   Clear
12:53 PM 33.1 °F 27.7 °F 10.9 °F 40% 30.12 in 10.0 mi NE 5.8 mph - N/A   Clear
1:53 PM 33.1 °F 26.1 °F 10.9 °F 40% 30.11 in 10.0 mi NNE 8.1 mph - N/A   Clear
2:53 PM 32.0 °F 24.8 °F 10.0 °F 40% 30.10 in 10.0 mi NE 8.1 mph - N/A   Clear
3:53 PM 30.0 °F 22.4 °F 9.0 °F 41% 30.09 in 10.0 mi NNE 8.1 mph - N/A   Clear
4:53 PM 28.0 °F 20.0 °F 12.0 °F 51% 30.08 in 10.0 mi NE 8.1 mph - N/A   Clear
5:53 PM 26.1 °F 17.6 °F 10.9 °F 53% 30.07 in 10.0 mi NNE 8.1 mph - N/A   Clear
6:53 PM 24.1 °F 15.2 °F 10.9 °F 57% 30.06 in 10.0 mi NNE 8.1 mph - N/A   Clear
7:53 PM 24.1 °F 19.7 °F 10.9 °F 57% 30.05 in 10.0 mi Variable 3.5 mph - N/A   Clear
8:53 PM 21.0 °F - 10.0 °F 63% 30.05 in 10.0 mi Calm Calm - N/A   Clear
9:53 PM 18.0 °F 12.7 °F 10.0 °F 71% 30.05 in 10.0 mi East 3.5 mph - N/A   Clear
10:53 PM 15.1 °F - 10.0 °F 80% 30.04 in 10.0 mi Calm Calm - N/A   Clear
11:53 PM 16.0 °F - 9.0 °F 74% 30.04 in 10.0 mi Calm Calm - N/A   Clear